FW2439 Weather Reports


time (UTC)temp
F
wind
direction
speed
knots
gust
knots
rain 1hr
in
rain 24hr
in
rain mn
in
humidity
%
barometer
mb
20260903153018 94 233 0.0 0.9 0.00 0.00 0.00 65 1016.8
20260903151514 93 221 0.0 1.7 0.00 0.00 0.00 66 1016.8
20260903150013 93 283 0.0 0.9 0.00 0.00 0.00 67 1016.9
20260903144508 91 223 0.0 0.0 0.00 0.00 0.00 69 1017.0
20260903143003 90 247 0.0 0.0 0.00 0.00 0.00 73 1016.9
20260903141559 86 246 0.0 0.0 0.00 0.00 0.00 79 1016.9
20260903140106 82 247 0.0 0.0 0.00 0.00 0.00 87 1017.1
20260903134551 79 247 0.0 0.9 0.00 0.00 0.00 91 1017.2
20260903133047 77 265 0.0 0.9 0.00 0.00 0.00 96 1017.3
20260903131542 75 268 0.0 0.0 0.00 0.00 0.00 98 1017.3
20260903130045 74 268 0.0 0.0 0.00 0.00 0.00 99 1017.3
20260903124538 73 268 0.0 0.0 0.00 0.00 0.00 99 1017.3
20260903123036 73 268 0.0 0.0 0.00 0.00 0.00 99 1017.1
20260903121534 72 268 0.0 0.0 0.00 0.00 0.00 99 1017.0
20260903120036 72 268 0.0 0.0 0.00 0.00 0.00 99 1016.8
20260903114532 72 268 0.0 0.0 0.00 0.00 0.00 98 1016.7
20260903113031 72 268 0.0 0.0 0.00 0.00 0.00 98 1016.5
20260903111529 72 268 0.0 0.0 0.00 0.00 0.00 98 1016.3
20260903110029 72 268 0.0 0.0 0.00 0.00 0.00 98 1016.2
20260903104527 72 268 0.0 0.0 0.00 0.00 0.00 98 1016.1
20260903103026 72 268 0.0 0.0 0.00 0.00 0.00 98 1016.0
20260903101540 72 268 0.0 0.0 0.00 0.00 0.00 98 1016.0
20260903100032 72 268 0.0 0.0 0.00 0.00 0.00 98 1015.9
20260903094525 72 268 0.0 0.0 0.00 0.00 0.00 97 1016.1
20260903093032 72 268 0.0 0.0 0.00 0.00 0.00 97 1015.9
20260903091523 72 268 0.0 0.0 0.00 0.00 0.00 97 1016.0
20260903090023 73 268 0.0 0.0 0.00 0.00 0.00 97 1016.0
20260903084530 73 268 0.0 0.0 0.00 0.00 0.00 97 1016.0
20260903083025 73 268 0.0 0.0 0.00 0.00 0.00 97 1015.9
20260903081519 73 268 0.0 0.0 0.00 0.00 0.00 96 1015.7
20260903080036 73 268 0.0 0.0 0.00 0.00 0.00 96 1015.7
20260903074519 73 268 0.0 0.0 0.00 0.00 0.00 96 1015.7
20260903073022 73 268 0.0 0.0 0.00 0.00 0.00 96 1015.7
20260903071515 73 268 0.0 0.0 0.00 0.00 0.00 95 1015.8
20260903070017 73 268 0.0 0.0 0.00 0.00 0.00 95 1015.8
20260903064512 73 268 0.0 0.0 0.00 0.00 0.00 95 1016.0
20260903063011 74 268 0.0 0.0 0.00 0.00 0.00 94 1016.2
20260903061514 74 268 0.0 0.0 0.00 0.00 0.00 94 1016.1
20260903060007 74 268 0.0 0.0 0.00 0.00 0.00 94 1016.1
20260903054509 74 268 0.0 0.0 0.00 0.00 0.00 94 1016.1
20260903053003 74 268 0.0 0.0 0.00 0.00 0.00 94 1016.0
20260903051502 74 268 0.0 0.0 0.00 0.00 0.00 94 1015.9
20260903050100 75 268 0.0 0.0 0.00 0.00 0.00 93 1015.9
20260903044601 75 268 0.0 0.0 0.00 0.00 0.00 93 1015.9
20260903043058 75 268 0.0 0.0 0.00 0.00 0.00 92 1016.0
20260903041610 75 268 0.0 0.0 0.00 0.00 0.00 92 1015.9
20260903040115 76 268 0.0 0.0 0.00 0.00 0.00 91 1015.8
20260903034601 76 268 0.0 0.0 0.00 0.00 0.00 91 1016.0
20260903033055 76 268 0.0 0.0 0.00 0.00 0.00 90 1016.2
20260903031553 77 268 0.0 0.0 0.00 0.00 0.00 90 1016.0
20260903030054 77 268 0.0 0.0 0.00 0.00 0.00 89 1016.1
20260903024554 78 268 0.0 0.0 0.00 0.00 0.00 88 1016.0
20260903023055 78 268 0.0 0.0 0.00 0.00 0.00 87 1015.8
20260903021552 79 268 0.0 0.0 0.00 0.00 0.00 87 1015.7
20260903020052 80 268 0.0 0.0 0.00 0.00 0.00 86 1015.9
20260903014554 80 268 0.0 0.0 0.00 0.00 0.00 85 1015.5
20260903013052 81 268 0.0 0.0 0.00 0.00 0.00 83 1015.3
20260903011553 82 268 0.0 0.0 0.00 0.00 0.00 82 1015.3
20260903010050 83 268 0.0 0.0 0.00 0.00 0.00 79 1015.1
20260903004555 84 268 0.0 0.0 0.00 0.00 0.00 77 1015.2
20260903003049 86 268 0.0 0.0 0.00 0.00 0.00 74 1015.2
20260903001601 87 268 0.0 0.0 0.00 0.00 0.00 71 1015.3
20260903000047 89 268 0.0 0.0 0.00 0.00 0.00 69 1015.2
20260902234547 91 268 0.0 0.0 0.00 0.00 0.00 66 1015.3
20260902233047 92 268 0.0 0.0 0.00 0.00 0.00 63 1015.3
20260902231546 93 267 0.0 0.0 0.00 0.00 0.00 61 1015.3
20260902230047 94 267 0.0 0.9 0.00 0.00 0.00 59 1015.3
20260902224552 96 305 0.0 1.7 0.00 0.00 0.00 55 1015.4
20260902223044 97 283 0.0 2.6 0.00 0.00 0.00 53 1015.4
20260902221547 98 236 0.0 1.7 0.00 0.00 0.00 52 1015.5
20260902220051 98 264 0.9 2.6 0.00 0.00 0.00 52 1015.5
20260902214541 98 245 0.0 3.5 0.00 0.00 0.00 52 1015.6
20260902213047 98 249 0.9 4.3 0.00 0.00 0.00 50 1015.6
20260902211537 97 290 0.0 1.7 0.00 0.00 0.00 51 1015.7
20260902210036 97 280 0.0 2.6 0.00 0.00 0.00 52 1015.8
20260902204535 97 298 0.9 2.6 0.00 0.00 0.00 52 1015.9
20260902203032 97 248 0.0 1.7 0.00 0.00 0.00 50 1016.1
20260902201530 97 248 0.0 0.9 0.00 0.00 0.00 52 1016.3
20260902200030 99 319 0.9 4.3 0.00 0.00 0.00 48 1016.4
20260902194525 98 277 0.0 2.6 0.00 0.00 0.00 53 1016.5
20260902193025 98 232 1.7 3.5 0.00 0.00 0.00 52 1016.6
20260902191522 97 231 0.9 5.2 0.00 0.00 0.00 51 1016.9
20260902190031 98 252 0.0 1.7 0.00 0.00 0.00 52 1017.0
20260902184515 97 226 0.9 4.3 0.00 0.00 0.00 52 1017.2
20260902183014 96 191 0.9 3.5 0.00 0.00 0.00 57 1017.3
20260902181512 96 185 0.9 3.5 0.00 0.00 0.00 53 1017.4
20260902180014 95 233 0.0 2.6 0.00 0.00 0.00 56 1017.6
20260902174507 95 269 0.9 4.3 0.00 0.00 0.00 53 1017.7
20260902173009 95 205 0.0 5.2 0.00 0.00 0.00 56 1018.0
20260902171505 96 208 0.0 3.5 0.00 0.00 0.00 56 1018.1
20260902170100 94 262 0.0 3.5 0.00 0.00 0.00 62 1018.3
20260902164603 94 25 0.9 4.3 0.00 0.00 0.00 59 1018.6
20260902163057 94 313 0.9 3.5 0.00 0.00 0.00 61 1018.8
20260902161555 94 248 0.0 3.5 0.00 0.00 0.00 59 1018.8
20260902160053 94 236 0.9 2.6 0.00 0.00 0.00 62 1018.8
20260902154552 93 264 0.9 2.6 0.00 0.00 0.00 60 1019.0